Location: Unspecified
(0.0000°N, 0.0000°E)
Time: 05:23:03
(UTC+00:00)

MIDAS 4 DEB - Visible Passes

Search period start: 14 December 2025 00:00
Search period end: 24 December 2025 00:00
Orbit: 3361 x 3906 km, 95.9° (Epoch: 19 October)

Date Brightness Start Highest point End Pass type
(mag) Time Alt. Az. Time Alt. Az. Time Alt. Az.
14 Dec ? 04:15:14 10° SE 04:30:41 28° ENE 04:45:20 10° NNE visible
14 Dec ? 19:23:08 10° NNW 19:38:27 42° WNW 19:54:27 10° SW visible
15 Dec ? 05:05:37 10° SSE 05:24:55 54° ENE 05:43:14 10° N visible
15 Dec ? 20:22:41 10° NW 20:32:44 19° WNW 20:43:08 10° WSW visible
16 Dec ? 03:31:45 10° E 03:37:51 12° ENE 03:43:48 10° NE visible
16 Dec ? 18:28:08 10° N 18:45:01 70° WNW 19:02:40 10° SSW visible
17 Dec ? 04:15:20 10° SE 04:31:46 32° ENE 04:47:19 10° NNE visible
17 Dec ? 19:24:46 10° NNW 19:39:30 37° WNW 19:54:55 10° SW visible
18 Dec ? 05:06:26 10° SSE 05:26:03 60° ENE 05:44:40 10° N visible
18 Dec ? 20:25:32 10° NW 20:33:43 15° WNW 20:42:09 10° WSW visible
19 Dec ? 03:29:26 10° ESE 03:38:51 15° ENE 03:47:53 10° NE visible
19 Dec ? 18:29:24 10° N 18:46:05 64° WNW 19:03:35 10° SSW visible
20 Dec ? 04:15:36 10° SE 04:32:53 36° ENE 04:49:09 10° NNE visible
20 Dec ? 19:26:29 10° NNW 19:40:32 33° WNW 19:55:17 10° SW visible
21 Dec ? 05:07:19 10° SSE 05:27:12 67° ENE 05:46:01 10° N visible
21 Dec ? 20:29:19 10° NW 20:34:41 12° WNW 20:40:10 10° W visible
22 Dec ? 03:28:14 10° ESE 03:39:52 18° ENE 03:50:57 10° NE visible
22 Dec ? 18:30:44 10° N 18:47:08 57° WNW 19:04:26 10° SSW visible
23 Dec ? 04:16:02 10° SE 04:34:00 41° ENE 04:50:53 10° NNE visible
23 Dec ? 19:28:21 10° NNW 19:41:34 29° WNW 19:55:27 10° SW visible
